Regional Weather Roundup
Issued by NWS

Home | Current Version | Previous Version | Text Only | Print | Product List | Glossary Off
Versions: 1 2 3 4 5 6 7 8 9 10 11 12 13 14 15 16 17 18 19 20 21 22 23 24 25 26 27 28 29 30 31 32 33 34 35 36 37 38 39 40 41 42 43 44 45 46 47 48 49 50

000
ASUS43 KFSD 290702
RWRSD

WEATHER ROUNDUP FOR SOUTH DAKOTA
NATIONAL WEATHER SERVICE SIOUX FALLS SD
200 AM CDT FRI AUG 29 2014

NOTE: "FAIR" INDICATES FEW OR NO CLOUDS BELOW 12,000 FEET WITH NO
SIGNIFICANT WEATHER AND/OR OBSTRUCTIONS TO VISIBILITY.


SDZ001>005-009-010-012>017-290800-
NORTHWEST AND NORTH CENTRAL SOUTH DAKOTA

CITY           SKY/WX    TMP DP  RH WIND       PRES   REMARKS
BUFFALO          N/A     65  53  65 SW6       29.80F
FAITH            N/A     60  59  96 S12       29.85F
MOBRIDGE       CLOUDY    65  65 100 SE6       29.81F
$$

SDZ012>016-024>037-041>051-057-063-072>074-290800-
SOUTHWEST AND SOUTH CENTRAL SOUTH DAKOTA

CITY           SKY/WX    TMP DP  RH WIND       PRES   REMARKS
RAPID CTY ARPT CLEAR     56  55  97 CALM      29.91F
PIERRE         MOCLDY    65  65 100 W6        29.80F
CUSTER         CLEAR     51  45  79 W6        30.06S
ELLSWORTH AFB  CLEAR     61  56  85 W8        29.90F
PHILIP         PTCLDY    59  57  93 W5        29.86S
PINE RIDGE     PTCLDY    51  50  96 E3        29.94F
WINNER         FAIR      65  64  97 SW6       29.85S
$$

SDZ004>011-016>023-039-040-290800-
NORTHEAST SOUTH DAKOTA

CITY           SKY/WX    TMP DP  RH WIND       PRES   REMARKS
ABERDEEN       MOCLDY    64  64 100 NE6       29.81F
WATERTOWN      CLOUDY    66  66 100 E3        29.79F FOG
SISSETON         N/A     65  65 100 N3        29.81F
$$

SDZ017-020-022-023-036>040-048>070-290800-
SOUTHEAST SOUTH DAKOTA

CITY           SKY/WX    TMP DP  RH WIND       PRES   REMARKS
SIOUX FALLS    CLOUDY    72  70  93 S13       29.78F
HURON          CLOUDY    69  68  96 CALM      29.78S FOG
CHAMBERLAIN    CLOUDY    66  66  99 CALM      29.82R
MITCHELL       CLOUDY    71  70  96 CALM      29.78S FOG
YANKTON        CLOUDY    68  66  94 SW3       29.78R
$$

ABBREVIATIONS USED IN REMARKS
   TC - TEMPERATURE IN CELSIUS
  WCI - WIND CHILL INDEX
   HX - HEAT INDEX
  VSB - VISIBILITY




USA.gov is the U.S. government's official web portal to all federal, state and local government web resources and services.